Home > Weather > Nanning > Past weeks

Flag for China Past Weather in Nanning, Guangxi, China — Yesterday and Last 2 Weeks

Now
95 °F

Passing clouds.


Feels Like: 103 °F
Forecast: 79 / 103 °F
Wind: 6 mph from Southeast

Location: Nanning Airport

Current Time: Jul 25, 2016 at 8:01:29 PM

Latest Report: Jul 25, 2016 at 7:00 PM


Visibility: N/A

Pressure: 29.71 "Hg

Humidity: 47%

Dew Point: 72 °F

Location of NanningLocation

Past Weather in Nanning — Graph

°F

Nanning Temperature Yesterday

Maximum temperature yesterday: 95 °F (at 2:00 PM)
Minimum temperature yesterday: 79 °F (at 2:00 AM)
Average temperature yesterday: 86 °F

High & Low Weather Summary for the Past Weeks

 TemperatureHumidityPressure
High97 °F (Jul 25, 4:00 PM)94% (Jul 12, 6:00 AM)29.86 "Hg (Jul 12, 6:00 AM)
Low75 °F (Jul 12, 5:00 PM)42% (Jul 25, 5:00 PM)29.45 "Hg (Jul 10, 6:00 PM)
Average84 °F79%29.68 "Hg
* Reported Jul 10 6:00 PM — Jul 25 6:00 PM, Nanning, Weather by CustomWeather, © 2016

Note: Actual official high and low records may vary slightly from our data, if they occured in-between our weather recording intervals... More about our weather records

Advertising

Nanning Weather History for the Previous 24 Hours

Scroll right to see more
 ConditionsComfort  
Time TempWeatherWind HumidityBarometerVisibility
6:00 PM
Mon, Jul 25
97 °FPassing clouds.6 mph42%29.71 "HgN/A
5:00 PM97 °FPassing clouds.6 mph42%29.71 "HgN/A
4:00 PM97 °FScattered clouds.3 mph44%29.71 "HgN/A
3:00 PM95 °FScattered clouds.6 mph47%29.74 "HgN/A
2:00 PM95 °FScattered clouds.6 mph50%29.77 "HgN/A
1:00 PM93 °FScattered clouds.1 mph49%29.80 "HgN/A
12:00 PM93 °FScattered clouds.3 mph53%29.80 "HgN/A
11:00 AM91 °FScattered clouds.3 mph59%29.83 "HgN/A
10:00 AM88 °FPassing clouds.3 mph70%29.83 "HgN/A
9:00 AM86 °FPassing clouds.1 mph75%29.83 "HgN/A
8:00 AM84 °FPassing clouds.1 mph79%29.80 "HgN/A
7:00 AM81 °FSunny.1 mph89%29.80 "Hg10 mi
6:00 AM79 °FClear.1 mph94%29.80 "Hg10 mi
5:00 AM79 °FClear.1 mph94%29.77 "Hg10 mi
4:00 AM81 °FClear.3 mph89%29.77 "Hg10 mi
3:00 AM81 °FClear.3 mph89%29.77 "Hg10 mi
2:00 AM81 °FClear.1 mph89%29.77 "Hg10 mi
1:00 AM81 °FClear.3 mph89%29.77 "Hg10 mi
12:00 AM82 °FClear.1 mph84%29.77 "Hg10 mi
11:00 PM
Sun, Jul 24
82 °FPassing clouds.3 mph84%29.77 "HgN/A
10:00 PM84 °FPassing clouds.3 mph84%29.77 "HgN/A
9:00 PM86 °FPassing clouds.6 mph79%29.74 "HgN/A
8:00 PM88 °FClear.6 mph75%29.71 "Hg10 mi
Weather by CustomWeather, © 2016

See weather overviewHow to use our weather pages